Location: *
(60.1759°S, 155.0663°W)
Time: 01:00:11
(UTC+00:00)

SJ 16-02 - Pass Details

Date: 17 September 2019
Orbit: 606 x 617 km, 75.0° (Epoch: 19 October)

Event Time Altitude Azimuth Distance (km) Brightness Sun altitude
Rises 15:25:14 0° 328° (NNW) 2,882 4.4 -8.0°
Reaches altitude 10° 15:27:28 10° 327° (NNW) 1,983 3.6 -7.8°
Maximum altitude 15:31:54 81° 240° (WSW) 636 1.4 -7.2°
Drops below altitude 10° 15:36:24 10° 151° (SSE) 2,004 4.5 -6.7°
Sets 15:38:40 0° 149° (SSE) 2,916 5.4 -6.4°
